Weather History for Iron Mountain, MI

Change the Weather History Date:

Friday, January 31, 2014

  Actual Average Record
Temperature  
Mean Temperature 1 °F -  
Max Temperature 9 °F 27 °F 45 °F (1989)
Min Temperature -7 °F 3 °F -19 °F (1951)
Degree Days  
Heating Degree Days 64    
Moisture  
Dew Point -8 °F    
Average Humidity 69    
Maximum Humidity 87    
Minimum Humidity 55    
Precipitation  
Precipitation 0.00 in - - ()
Sea Level Pressure  
Sea Level Pressure 30.03 in    
Wind  
Wind Speed 6 mph (West)    
Max Wind Speed 12 mph    
Max Gust Speed -    
Visibility 10 miles    
Events      
Averages and records for this station are not official NWS values.
T = Trace of Precipitation, MM = Missing Value Source: NWS Daily Summary

Daily Weather History Graph

Daily Weather History Graph

Search for Another Location

Airport:

Trip Planner

Search our weather history database for the weather conditions in past years. The results will help you decide how hot, cold, wet, or windy it might be!

Date:

Astronomy

Jan. 31, 2014 Rise Set
Actual Time 7:15 AM CST 4:56 PM CST
Civil Twilight 6:43 AM CST 5:28 PM CST
Nautical Twilight 6:07 AM CST 6:04 PM CST
Astronomical Twilight 5:32 AM CST 6:39 PM CST
Moon 7:19 AM CST (1/31) 6:27 PM CST (1/31)
Length of Visible Light 10h 45m
Length of Day
9h 41m
New Moon, 1% of the Moon is Illuminated
Jan 31
New Moon
Feb 6
First Quarter
Feb 14
Full
Feb 22
Last Quarter
Mar 1
New

Hourly Weather History & Observations

Time (CST) Temp. Windchill Dew Point Humidity Pressure Visibility Wind Dir Wind Speed Gust Speed Precip Events Conditions
12:07 AM 3.2 °F -6.2 °F -2.2 °F 78% 29.79 in 10.0 mi West 4.6 mph - N/A   Mostly Cloudy
12:54 AM 3.9 °F -11.3 °F -2.0 °F 76% 29.88 in 10.0 mi West 10.4 mph - N/A   Overcast
1:54 AM 3.0 °F -13.3 °F -4.0 °F 73% 29.91 in 10.0 mi West 11.5 mph - N/A   Mostly Cloudy
2:05 AM 3.2 °F -12.2 °F -5.8 °F 66% 29.84 in 10.0 mi WNW 10.4 mph - N/A   Scattered Clouds
2:54 AM 1.0 °F -14.0 °F -6.0 °F 72% 29.93 in 10.0 mi WNW 9.2 mph - N/A   Clear
3:54 AM -0.9 °F -15.3 °F -8.0 °F 72% 29.94 in 10.0 mi WNW 8.1 mph - N/A   Clear
4:54 AM -2.9 °F -11.2 °F -9.0 °F 75% 29.99 in 10.0 mi West 3.5 mph - N/A   Clear
5:54 AM -4.0 °F - -11.0 °F 72% 30.01 in 10.0 mi Calm Calm - N/A   Clear
6:54 AM -6.0 °F -14.7 °F -11.9 °F 75% 30.03 in 10.0 mi WNW 3.5 mph - N/A   Clear
7:54 AM -6.0 °F -21.5 °F -13.0 °F 72% 30.05 in 10.0 mi WNW 8.1 mph - N/A   Clear
8:54 AM -5.1 °F -19.1 °F -13.0 °F 69% 30.08 in 10.0 mi WNW 6.9 mph - N/A   Clear
9:54 AM -4.0 °F -16.3 °F -11.9 °F 69% 30.09 in 10.0 mi West 5.8 mph - N/A   Clear
10:54 AM -0.9 °F - -11.0 °F 62% 30.10 in 10.0 mi Calm Calm - N/A   Clear
11:54 AM 1.9 °F -9.2 °F -9.0 °F 60% 30.09 in 10.0 mi WSW 5.8 mph - N/A   Clear
12:54 PM 5.0 °F -6.9 °F -8.0 °F 55% 30.08 in 10.0 mi WSW 6.9 mph - N/A   Clear
1:54 PM 7.0 °F -4.5 °F -6.0 °F 55% 30.07 in 10.0 mi SW 6.9 mph - N/A   Clear
2:54 PM 8.1 °F -0.5 °F -5.1 °F 55% 30.07 in 10.0 mi West 4.6 mph - N/A   Clear
3:54 PM 9.0 °F 2.4 °F -4.0 °F 56% 30.06 in 10.0 mi SW 3.5 mph - N/A   Clear
4:54 PM 7.0 °F 0.1 °F -5.1 °F 58% 30.06 in 10.0 mi WSW 3.5 mph - N/A   Clear
5:54 PM 1.0 °F - -5.1 °F 75% 30.07 in 10.0 mi Calm Calm - N/A   Clear
6:54 PM -6.0 °F - -9.9 °F 83% 30.08 in 10.0 mi Calm Calm - N/A   Clear
7:54 PM -7.1 °F - -9.9 °F 87% 30.09 in 10.0 mi Calm Calm - N/A   Clear
8:54 PM -0.9 °F - -9.0 °F 69% 30.09 in 10.0 mi Calm Calm - N/A   Clear
9:54 PM -6.0 °F - -13.0 °F 72% 30.09 in 10.0 mi Calm Calm - N/A   Clear
10:54 PM -4.0 °F -14.6 °F -11.0 °F 72% 30.10 in 10.0 mi NNW 4.6 mph - N/A   Clear
11:54 PM -4.0 °F -16.3 °F -11.0 °F 72% 30.09 in 10.0 mi NW 5.8 mph - N/A   Clear